Other Public Products
Issued by NWS Charleston, SC

Current Version | Previous Version | Graphics & Text | Print | Product List | Glossary On
Versions: 1 2 3 4 5 6 7 8 9 10 11 12 13 14 15 16 17 18 19 20 21 22 23 24 25 26 27 28 29 30 31 32 33 34 35 36 37 38 39 40 41 42 43 44 45 46 47 48 49 50
000 FPUS82 KCHS 240643 OPUCHS TEST...KCHS/KSAV Gateway Observations...TEST National Weather Service Charleston SC 200 AM EDT SUN SEP 24 2017 NOTE: "fair" indicates few or no clouds below 12,000 feet with no significant weather and/or obstructions to visibility. SCZ050-WAZ558-NCZ071-TXZ119-213-PAZ071-DCZ001-FLZ074-172-MI076- NYZ176-178-MAZ016-IL014-TNZ027-NJZ106-GAZ044-MD014-240700- ...Gateway Observations for Charleston International... CITY SKY/WX TMP DP RH WIND PRES REMARKS Chas Airport CLEAR 71 69 93 NE6 29.98F 6HR MIN TEMP: 71; 6HR MAX TEMP: 78; Seattle CLEAR 56 48 74 NW3 30.13R 6HR MIN TEMP: 56; 6HR MAX TEMP: 68; Charlotte PTCLDY 69 63 81 NE3 30.07F 6HR MIN TEMP: 69; 6HR MAX TEMP: 82; Dallas DFW PTCLDY 81 66 60 S9 29.87R 6HR MIN TEMP: 81; 6HR MAX TEMP: 90; Dallas Love CLEAR 82 67 60 SE10 29.88S 6HR MIN TEMP: 81; 6HR MAX TEMP: 90; Philladelphia CLEAR 72 59 63 N3 30.04S 6HR MIN TEMP: 72; 6HR MAX TEMP: 80; Wash National MOCLDY 70 63 78 CALM 30.07S 6HR MIN TEMP: 70; 6HR MAX TEMP: 81; Baltimore CLEAR 65 61 87 CALM 30.05S 6HR MIN TEMP: 62; 6HR MAX TEMP: 76; Miami PTCLDY 81 78 91 CALM 29.82F 6HR MIN TEMP: 81; 6HR MAX TEMP: 84; Detroit CLEAR 69 64 84 N3 30.13S 6HR MIN TEMP: 69; 6HR MAX TEMP: 80; Newark CLEAR 73 58 59 NE3 30.04S 6HR MIN TEMP: 73; 6HR MAX TEMP: 81; Laguardia CLEAR 73 58 59 NE3 30.03S 6HR MIN TEMP: 73; 6HR MAX TEMP: 81; J F K CLEAR 69 57 65 N5 30.05S 6HR MIN TEMP: 68; 6HR MAX TEMP: 80; Boston Logan PTCLDY 62 61 96 CALM 30.02F 6HR MIN TEMP: 60; 6HR MAX TEMP: 63; Ft. Lauderdale PTCLDY 81 77 88 E6 29.81F 6HR MIN TEMP: 81; 6HR MAX TEMP: 83; Chicago O`Hare CLEAR 76 65 68 SE5 30.06S 6HR MIN TEMP: 75; 6HR MAX TEMP: 86; Chicago Midway CLEAR 79 66 64 SE6 30.06S 6HR MIN TEMP: 78; 6HR MAX TEMP: 87; Houston Bush PTCLDY 74 72 93 SE8 29.89S 6HR MIN TEMP: 74; 6HR MAX TEMP: 82; Houston Hobby PTCLDY 77 71 82 CALM 29.88S 6HR MIN TEMP: 77; 6HR MAX TEMP: 86; Nashville CLEAR 72 69 90 CALM 30.02F 6HR MIN TEMP: 72; 6HR MAX TEMP: 83; Atlanta CLEAR 73 65 75 E5 30.03S 6HR MIN TEMP: 73; 6HR MAX TEMP: 82; $$ GAZ044-118-TXZ119-213-NCZ071-DCZ001-MDZ014-506-PAZ021-071-NJZ106- NYZ176-178-MAZ106-OHZ011-021-055-MIZ076-KYZ091-ILZ014-INZ047- MNZ060-ONZ431-240700- ...Gateway Observations for Savannah International... CITY SKY/WX TMP DP RH WIND PRES REMARKS Savannah Arpt CLEAR 71 70 96 N5 29.97F 6HR MIN TEMP: 71; 6HR MAX TEMP: 78; Atlanta CLEAR 73 65 75 E5 30.03S 6HR MIN TEMP: 73; 6HR MAX TEMP: 82; Charlotte PTCLDY 69 63 81 NE3 30.07F 6HR MIN TEMP: 69; 6HR MAX TEMP: 82; Dallas DFW PTCLDY 81 66 60 S9 29.87R 6HR MIN TEMP: 81; 6HR MAX TEMP: 90; Houston Bush PTCLDY 74 72 93 SE8 29.89S 6HR MIN TEMP: 74; 6HR MAX TEMP: 82; Wash National MOCLDY 70 63 78 CALM 30.07S 6HR MIN TEMP: 70; 6HR MAX TEMP: 81; Wash Dulles CLEAR 62 61 96 CALM 30.08S 6HR MIN TEMP: 62; 6HR MAX TEMP: 75; Baltimore CLEAR 65 61 87 CALM 30.05S 6HR MIN TEMP: 62; 6HR MAX TEMP: 76; Philadelphia CLEAR 72 59 63 N3 30.04S 6HR MIN TEMP: 72; 6HR MAX TEMP: 80; Newark CLEAR 73 58 59 NE3 30.04S 6HR MIN TEMP: 73; 6HR MAX TEMP: 81; Laguardia CLEAR 73 58 59 NE3 30.03S 6HR MIN TEMP: 73; 6HR MAX TEMP: 81; J F K CLEAR 69 57 65 N5 30.05S 6HR MIN TEMP: 68; 6HR MAX TEMP: 80; Boston PTCLDY 62 61 96 CALM 30.02F 6HR MIN TEMP: 60; 6HR MAX TEMP: 63; Pittsburg CLEAR 66 59 78 CALM 30.14S 6HR MIN TEMP: 65; 6HR MAX TEMP: 82; Akron CLEAR 68 59 73 NE5 30.15S 6HR MIN TEMP: 66; 6HR MAX TEMP: 78; Cleveland CLEAR 69 59 70 CALM 30.15S 6HR MIN TEMP: 67; 6HR MAX TEMP: 80; Cincinnati CLEAR 73 63 70 E3 30.09R 6HR MIN TEMP: 73; 6HR MAX TEMP: 80; Columbus CLEAR 64 61 91 CALM 30.11R Detroit CLEAR 69 64 84 N3 30.13S 6HR MIN TEMP: 69; 6HR MAX TEMP: 80; Chicago O`Hare CLEAR 76 65 68 SE5 30.06S 6HR MIN TEMP: 75; 6HR MAX TEMP: 86; Minneapolis CLOUDY 78 65 63 S8 29.94S 6HR MIN TEMP: 78; 6HR MAX TEMP: 84; Indianapolis CLEAR 74 64 71 E6 30.07S 6HR MIN TEMP: 73; 6HR MAX TEMP: 83; Toronto Canada CLEAR 73 66 78 VRB2 30.10S $$

USA.gov is the U.S. government's official web portal to all federal, state and local government web resources and services.